When you browse on this site, cookies collect data to enhance your experience and personalize the content and advertising you see.
Visit our Privacy Policy to learn more. By continuing to use the site, you agree to this use of cookies and data.
  • en Suisse
  • Liste des pays
  • À 7 jours
  • Température de l'eau
  • Carte satellitaire
  • Carte météo
  • Widgets météo
  • user-avatar
    Se connecter

    Météo par heure à Tomashhorod

    Ce jour, 22 Avril, Lundi

    Heure Température Précipitation Vent Pression Humidité
    00:00 +8°C° 0 mm 4 m/s 750 mmHg 81%
    01:00 +7°C° 0 mm 4 m/s 750 mmHg 81%
    02:00 +7°C° 0 mm 3 m/s 751 mmHg 81%
    03:00 +7°C° 0 mm 3 m/s 751 mmHg 80%
    04:00 +5°C° 0 mm 3 m/s 751 mmHg 79%
    05:00 +5°C° 0 mm 3 m/s 752 mmHg 78%
    06:00 +6°C° 0 mm 4 m/s 752 mmHg 71%
    07:00 +8°C° 0 mm 4 m/s 752 mmHg 65%
    08:00 +10°C° 0 mm 4 m/s 753 mmHg 58%
    09:00 +12°C° 0 mm 5 m/s 753 mmHg 50%
    10:00 +13°C° 0 mm 5 m/s 753 mmHg 42%
    11:00 +15°C° 0 mm 5 m/s 754 mmHg 34%
    12:00 +15°C° 0 mm 5 m/s 754 mmHg 34%
    13:00 +15°C° 0 mm 5 m/s 754 mmHg 33%
    14:00 +15°C° 0 mm 5 m/s 754 mmHg 32%
    15:00 +15°C° 0 mm 5 m/s 754 mmHg 34%
    16:00 +14°C° 0 mm 4 m/s 754 mmHg 36%
    17:00 +14°C° 0 mm 4 m/s 754 mmHg 37%
    18:00 +12°C° 0 mm 4 m/s 754 mmHg 44%
    19:00 +11°C° 0 mm 3 m/s 754 mmHg 50%
    20:00 +9°C° 0 mm 2 m/s 754 mmHg 57%
    21:00 +9°C° 0 mm 2 m/s 755 mmHg 59%
    22:00 +8°C° 0 mm 2 m/s 755 mmHg 62%
    23:00 +7°C° 0 mm 2 m/s 755 mmHg 64%

    Demain, 23 Avril, Mardi

    Heure Température Précipitation Vent Pression Humidité
    00:00 +7°C° 0 mm 2 m/s 755 mmHg 65%
    01:00 +7°C° 0 mm 2 m/s 756 mmHg 65%
    02:00 +6°C° 0 mm 2 m/s 756 mmHg 66%
    03:00 +6°C° 0 mm 2 m/s 756 mmHg 66%
    04:00 +5°C° 0 mm 3 m/s 756 mmHg 67%
    05:00 +4°C° 0 mm 3 m/s 756 mmHg 67%
    06:00 +7°C° 0 mm 3 m/s 756 mmHg 61%
    07:00 +8°C° 0 mm 4 m/s 756 mmHg 55%
    08:00 +11°C° 0 mm 4 m/s 756 mmHg 48%
    09:00 +13°C° 0 mm 5 m/s 756 mmHg 44%
    10:00 +14°C° 0 mm 5 m/s 756 mmHg 39%
    11:00 +16°C° 0 mm 6 m/s 756 mmHg 34%
    12:00 +16°C° 0 mm 6 m/s 756 mmHg 35%
    13:00 +16°C° 0 mm 6 m/s 756 mmHg 36%
    14:00 +16°C° 0 mm 6 m/s 755 mmHg 37%
    15:00 +16°C° 0 mm 6 m/s 755 mmHg 37%
    16:00 +16°C° 0 mm 6 m/s 755 mmHg 38%
    17:00 +16°C° 0 mm 6 m/s 755 mmHg 38%
    18:00 +14°C° 0 mm 5 m/s 755 mmHg 44%
    19:00 +13°C° 0 mm 4 m/s 755 mmHg 50%
    20:00 +11°C° 0 mm 3 m/s 755 mmHg 56%
    21:00 +11°C° 0 mm 3 m/s 755 mmHg 57%
    22:00 +10°C° 0 mm 4 m/s 755 mmHg 58%
    23:00 +10°C° 0 mm 4 m/s 755 mmHg 59%

    Après-demain, 24 Avril, Mercredi

    Heure Température Précipitation Vent Pression Humidité
    00:00 +8°C° 0 mm 4 m/s 755 mmHg 60%
    01:00 +8°C° 0 mm 4 m/s 755 mmHg 60%
    02:00 +8°C° 0 mm 4 m/s 755 mmHg 61%
    03:00 +7°C° 0 mm 4 m/s 755 mmHg 63%
    04:00 +7°C° 0 mm 4 m/s 755 mmHg 65%
    05:00 +7°C° 0 mm 4 m/s 755 mmHg 66%
    06:00 +8°C° 0 mm 5 m/s 755 mmHg 59%
    07:00 +10°C° 0 mm 5 m/s 755 mmHg 52%
    08:00 +13°C° 0 mm 6 m/s 756 mmHg 45%
    09:00 +14°C° 0 mm 7 m/s 756 mmHg 42%
    10:00 +15°C° 0 mm 7 m/s 756 mmHg 38%
    11:00 +16°C° 0 mm 7 m/s 756 mmHg 35%
    12:00 +17°C° 0 mm 7 m/s 755 mmHg 34%
    13:00 +18°C° 0 mm 7 m/s 755 mmHg 34%
    14:00 +18°C° 0 mm 7 m/s 755 mmHg 33%
    15:00 +19°C° 0 mm 6 m/s 755 mmHg 34%
    16:00 +19°C° 0 mm 6 m/s 754 mmHg 36%
    17:00 +17°C° 0 mm 6 m/s 754 mmHg 37%
    18:00 +16°C° 0 mm 5 m/s 754 mmHg 43%
    19:00 +14°C° 0 mm 4 m/s 754 mmHg 48%
    20:00 +12°C° 0 mm 3 m/s 754 mmHg 54%
    21:00 +12°C° 0 mm 4 m/s 755 mmHg 55%
    22:00 +12°C° 0 mm 4 m/s 755 mmHg 56%
    23:00 +11°C° 0 mm 4 m/s 755 mmHg 57%

    25 Avril, Jeudi

    Heure Température Précipitation Vent Pression Humidité
    00:00 +11°C° 0 mm 4 m/s 755 mmHg 58%
    01:00 +11°C° 0 mm 4 m/s 755 mmHg 60%
    02:00 +10°C° 0 mm 4 m/s 755 mmHg 61%
    03:00 +10°C° 0 mm 4 m/s 755 mmHg 63%
    04:00 +8°C° 0 mm 4 m/s 755 mmHg 64%
    05:00 +8°C° 0 mm 4 m/s 755 mmHg 66%
    06:00 +10°C° 0 mm 4 m/s 755 mmHg 60%
    07:00 +12°C° 0 mm 5 m/s 755 mmHg 54%
    08:00 +13°C° 0 mm 6 m/s 755 mmHg 48%
    09:00 +15°C° 0 mm 6 m/s 755 mmHg 44%
    10:00 +16°C° 0 mm 6 m/s 755 mmHg 40%
    11:00 +19°C° 0 mm 6 m/s 755 mmHg 36%
    12:00 +19°C° 0 mm 6 m/s 754 mmHg 36%
    13:00 +20°C° 0 mm 6 m/s 754 mmHg 36%
    14:00 +21°C° 0 mm 6 m/s 754 mmHg 36%
    15:00 +21°C° 0 mm 6 m/s 753 mmHg 38%
    16:00 +20°C° 0 mm 6 m/s 753 mmHg 40%
    17:00 +20°C° 0 mm 6 m/s 752 mmHg 43%
    18:00 +19°C° 0 mm 5 m/s 752 mmHg 48%
    19:00 +16°C° 0 mm 5 m/s 752 mmHg 53%
    20:00 +15°C° 0 mm 4 m/s 752 mmHg 58%
    21:00 +14°C° 0 mm 4 m/s 752 mmHg 58%
    22:00 +14°C° 0 mm 4 m/s 752 mmHg 59%
    23:00 +13°C° 0 mm 4 m/s 752 mmHg 59%

    26 Avril, Vendredi

    Heure Température Précipitation Vent Pression Humidité
    00:00 +13°C° 0 mm 4 m/s 751 mmHg 60%
    01:00 +12°C° 0 mm 4 m/s 751 mmHg 61%
    02:00 +12°C° 0 mm 4 m/s 751 mmHg 63%
    03:00 +11°C° 0 mm 4 m/s 751 mmHg 64%
    04:00 +11°C° 0 mm 4 m/s 750 mmHg 64%
    05:00 +11°C° 0 mm 4 m/s 750 mmHg 65%
    06:00 +12°C° 0 mm 5 m/s 750 mmHg 61%
    07:00 +13°C° 0 mm 5 m/s 750 mmHg 57%
    08:00 +14°C° 0 mm 5 m/s 750 mmHg 53%
    09:00 +15°C° 0 mm 6 m/s 750 mmHg 49%
    10:00 +17°C° 0 mm 6 m/s 749 mmHg 45%
    11:00 +20°C° 0 mm 6 m/s 749 mmHg 41%
    12:00 +21°C° 0 mm 6 m/s 749 mmHg 40%
    13:00 +22°C° 0 mm 6 m/s 748 mmHg 38%
    14:00 +23°C° 0 mm 6 m/s 748 mmHg 37%
    15:00 +22°C° 0 mm 5 m/s 748 mmHg 39%
    16:00 +22°C° 0 mm 5 m/s 748 mmHg 41%
    17:00 +22°C° 0 mm 4 m/s 747 mmHg 42%
    18:00 +20°C° 0 mm 4 m/s 747 mmHg 46%
    19:00 +19°C° 0 mm 4 m/s 747 mmHg 50%
    20:00 +17°C° 0 mm 3 m/s 747 mmHg 54%
    21:00 +16°C° 0 mm 3 m/s 747 mmHg 57%
    22:00 +16°C° 0 mm 3 m/s 747 mmHg 59%
    23:00 +14°C° 0 mm 3 m/s 747 mmHg 62%

    27 Avril, Samedi

    Heure Température Précipitation Vent Pression Humidité
    00:00 +13°C° 0 mm 3 m/s 747 mmHg 64%
    01:00 +12°C° 0 mm 3 m/s 747 mmHg 67%
    02:00 +12°C° 0 mm 3 m/s 747 mmHg 69%
    03:00 +12°C° 0 mm 3 m/s 747 mmHg 70%
    04:00 +11°C° 0 mm 3 m/s 747 mmHg 71%
    05:00 +11°C° 0 mm 3 m/s 747 mmHg 72%
    06:00 +13°C° 0 mm 3 m/s 747 mmHg 68%
    07:00 +14°C° 0 mm 4 m/s 747 mmHg 63%
    08:00 +15°C° 0 mm 4 m/s 747 mmHg 59%
    09:00 +18°C° 0 mm 4 m/s 747 mmHg 54%
    10:00 +20°C° 0 mm 4 m/s 747 mmHg 50%
    11:00 +21°C° 0 mm 5 m/s 747 mmHg 45%
    12:00 +22°C° 0 mm 5 m/s 747 mmHg 43%
    13:00 +23°C° 0 mm 4 m/s 747 mmHg 42%
    14:00 +25°C° 0 mm 4 m/s 747 mmHg 40%
    15:00 +25°C° 0 mm 4 m/s 747 mmHg 41%
    16:00 +23°C° 0 mm 4 m/s 747 mmHg 42%
    17:00 +23°C° 0 mm 4 m/s 747 mmHg 43%
    18:00 +21°C° 0 mm 4 m/s 747 mmHg 50%
    19:00 +19°C° 0 mm 3 m/s 747 mmHg 57%
    20:00 +17°C° 0 mm 3 m/s 747 mmHg 65%
    21:00 +17°C° 0 mm 3 m/s 748 mmHg 67%
    22:00 +16°C° 0 mm 3 m/s 748 mmHg 70%
    23:00 +15°C° 0 mm 2 m/s 748 mmHg 72%
    Voir plus